Weather History for Mayfld Grav Cnty AP, Mayfield, KY

Change the Weather History Date:

Thursday, January 23, 2014

  Actual Average (KPAH) Record (KPAH)
Temperature  
Mean Temperature 16 °F 35 °F  
Max Temperature 24 °F 44 °F 73 °F (1967)
Min Temperature 8 °F 26 °F -10 °F (1963)
Degree Days  
Heating Degree Days 49 30  
Month to date heating degree days 707  
Since 1 July heating degree days 2338  
Cooling Degree Days 0 0  
Month to date cooling degree days 0  
Year to date cooling degree days 0  
Moisture  
Dew Point 2 °F    
Average Humidity 57    
Maximum Humidity 79    
Minimum Humidity 35    
Precipitation  
Precipitation 0.00 in 0.11 in 0.92 in (2002)
Month to date precipitation 2.71  
Year to date precipitation 2.71  
Snow  
Snow 0.00 in 0.10 in 1.00 in (1977)
Month to date snowfall 2.1  
Since 1 July snowfall 4.4  
Snow Depth -    
Sea Level Pressure  
Sea Level Pressure 30.57 in    
Wind  
Wind Speed 9 mph (North)    
Max Wind Speed 17 mph    
Max Gust Speed 28 mph    
Visibility 10 miles    
Events      
T = Trace of Precipitation, MM = Missing Value Source: NWS Daily Summary

Daily Weather History Graph

Daily Weather History Graph

Search for Another Location

Airport:

Trip Planner

Search our weather history database for the weather conditions in past years. The results will help you decide how hot, cold, wet, or windy it might be!

Date:

Astronomy

Jan. 23, 2014 Rise Set
Actual Time 7:02 AM CST 5:10 PM CST
Civil Twilight 6:34 AM CST 5:38 PM CST
Nautical Twilight 6:03 AM CST 6:09 PM CST
Astronomical Twilight 5:32 AM CST 6:40 PM CST
Moon No Moon Rise 10:49 AM CST (1/23)
Length of Visible Light 11h 03m
Length of Day
10h 07m
Waning Gibbous, 55% of the Moon is Illuminated
Jan 23
Waning Gibbous
Jan 23
Last Quarter
Jan 30
New
Feb 6
First Quarter
Feb 14
Full

Hourly Weather History & Observations

Time (CST) Temp. Windchill Dew Point Humidity Pressure Visibility Wind Dir Wind Speed Gust Speed Precip Events Conditions
12:15 AM 24.8 °F 19.1 °F 15.8 °F 69% 30.23 in 10.0 mi North 4.6 mph - N/A   Clear
12:35 AM 24.8 °F 20.5 °F 15.8 °F 69% 30.23 in 10.0 mi North 3.5 mph - N/A   Clear
12:55 AM 23.0 °F 18.4 °F 15.8 °F 74% 30.24 in 10.0 mi North 3.5 mph - N/A   Clear
1:15 AM 23.0 °F 15.8 °F 15.8 °F 74% 30.25 in 10.0 mi North 5.8 mph - N/A   Clear
1:35 AM 23.0 °F 13.1 °F 15.8 °F 74% 30.26 in 10.0 mi NNW 9.2 mph - N/A   Clear
1:55 AM 23.0 °F 13.1 °F 15.8 °F 74% 30.29 in 10.0 mi North 9.2 mph 21.9 mph N/A   Clear
2:15 AM 23.0 °F 11.7 °F 15.8 °F 74% 30.30 in 10.0 mi North 11.5 mph 16.1 mph N/A   Clear
2:35 AM 23.0 °F 13.1 °F 14.0 °F 68% 30.31 in 10.0 mi North 9.2 mph - N/A   Clear
2:55 AM 21.2 °F 10.9 °F 14.0 °F 74% 30.33 in 10.0 mi North 9.2 mph - N/A   Clear
3:15 AM 21.2 °F 11.7 °F 14.0 °F 74% 30.34 in 10.0 mi North 8.1 mph - N/A   Clear
3:35 AM 21.2 °F 11.7 °F 14.0 °F 74% 30.34 in 10.0 mi North 8.1 mph - N/A   Clear
3:55 AM 21.2 °F 8.9 °F 14.0 °F 74% 30.36 in 10.0 mi North 12.7 mph 19.6 mph N/A   Clear
4:15 AM 21.2 °F 9.5 °F 10.4 °F 63% 30.37 in 10.0 mi North 11.5 mph 23.0 mph N/A   Scattered Clouds
4:35 AM 19.4 °F 6.6 °F 10.4 °F 68% 30.39 in 10.0 mi North 12.7 mph 21.9 mph N/A   Scattered Clouds
4:55 AM 19.4 °F 4.5 °F 8.6 °F 63% 30.41 in 10.0 mi North 17.3 mph 24.2 mph N/A   Mostly Cloudy
5:15 AM 15.8 °F 1.4 °F -0.4 °F 49% 30.44 in 10.0 mi North 13.8 mph 27.6 mph N/A   Mostly Cloudy
5:35 AM 14.0 °F -2.0 °F -0.4 °F 53% 30.45 in 10.0 mi NNW 16.1 mph 23.0 mph N/A   Scattered Clouds
5:55 AM 14.0 °F -0.8 °F -0.4 °F 53% 30.47 in 10.0 mi NNW 13.8 mph 17.3 mph N/A   Clear
6:15 AM 14.0 °F 0.5 °F -0.4 °F 53% 30.48 in 10.0 mi North 11.5 mph 18.4 mph N/A   Clear
6:35 AM 12.2 °F -2.5 °F 1.4 °F 62% 30.50 in 10.0 mi North 12.7 mph 18.4 mph N/A   Clear
6:55 AM 12.2 °F -4.8 °F 1.4 °F 62% 30.51 in 10.0 mi North 17.3 mph 21.9 mph N/A   Clear
7:15 AM 10.4 °F -6.6 °F 1.4 °F 67% 30.52 in 10.0 mi North 16.1 mph 20.7 mph N/A   Clear
7:35 AM 10.4 °F -3.3 °F 1.4 °F 67% 30.53 in 10.0 mi North 10.4 mph 19.6 mph N/A   Clear
7:55 AM 10.4 °F -6.0 °F 1.4 °F 67% 30.55 in 10.0 mi North 15.0 mph 20.7 mph N/A   Clear
8:15 AM 10.4 °F -5.4 °F -0.4 °F 62% 30.56 in 10.0 mi North 13.8 mph 20.7 mph N/A   Clear
8:35 AM 10.4 °F -3.3 °F -0.4 °F 62% 30.58 in 10.0 mi North 10.4 mph 19.6 mph N/A   Clear
8:55 AM 10.4 °F -6.6 °F -0.4 °F 62% 30.59 in 10.0 mi North 16.1 mph 19.6 mph N/A   Clear
9:15 AM 12.2 °F -4.3 °F -2.2 °F 53% 30.61 in 10.0 mi North 16.1 mph - N/A   Clear
9:35 AM 12.2 °F -3.1 °F -4.0 °F 48% 30.63 in 10.0 mi North 13.8 mph 18.4 mph N/A   Clear
9:55 AM 12.2 °F -1.8 °F -4.0 °F 48% 30.64 in 10.0 mi North 11.5 mph 20.7 mph N/A   Clear
10:15 AM 12.2 °F -2.5 °F -4.0 °F 48% 30.65 in 10.0 mi North 12.7 mph 16.1 mph N/A   Clear
10:35 AM 14.0 °F 1.2 °F -0.4 °F 53% 30.65 in 10.0 mi North 10.4 mph - N/A   Clear
10:55 AM 14.0 °F -2.0 °F -0.4 °F 53% 30.65 in 10.0 mi NNW 16.1 mph - N/A   Clear
11:15 AM 15.8 °F 4.2 °F -0.4 °F 49% 30.66 in 10.0 mi North 9.2 mph 17.3 mph N/A   Clear
11:35 AM 17.6 °F 3.7 °F -2.2 °F 42% 30.66 in 10.0 mi North 13.8 mph 17.3 mph N/A   Clear
11:55 AM 17.6 °F 5.7 °F -4.0 °F 38% 30.65 in 10.0 mi North 10.4 mph 18.4 mph N/A   Clear
12:15 PM 17.6 °F 5.7 °F -4.0 °F 38% 30.64 in 10.0 mi North 10.4 mph 16.1 mph N/A   Clear
12:35 PM 17.6 °F 5.0 °F -4.0 °F 38% 30.64 in 10.0 mi North 11.5 mph - N/A   Clear
12:55 PM 17.6 °F 5.0 °F -5.8 °F 35% 30.64 in 10.0 mi North 11.5 mph - N/A   Clear
1:15 PM 17.6 °F 5.7 °F -4.0 °F 38% 30.64 in 10.0 mi North 10.4 mph 17.3 mph N/A   Clear
1:35 PM 19.4 °F 8.6 °F -4.0 °F 36% 30.63 in 10.0 mi NW 9.2 mph - N/A   Clear
1:55 PM 19.4 °F 8.6 °F -4.0 °F 36% 30.64 in 10.0 mi North 9.2 mph - N/A   Clear
2:15 PM 19.4 °F 8.6 °F -4.0 °F 36% 30.64 in 10.0 mi North 9.2 mph - N/A   Clear
2:35 PM 19.4 °F 7.9 °F -2.2 °F 39% 30.64 in 10.0 mi NW 10.4 mph 20.7 mph N/A   Clear
2:55 PM 19.4 °F 7.2 °F -4.0 °F 36% 30.64 in 10.0 mi North 11.5 mph - N/A   Clear
3:15 PM 19.4 °F 8.6 °F -2.2 °F 39% 30.65 in 10.0 mi North 9.2 mph - N/A   Clear
3:35 PM 19.4 °F 8.6 °F -2.2 °F 39% 30.65 in 10.0 mi North 9.2 mph - N/A   Clear
3:55 PM 19.4 °F 7.9 °F -2.2 °F 39% 30.65 in 10.0 mi North 10.4 mph 18.4 mph N/A   Clear
4:15 PM 19.4 °F 7.9 °F -2.2 °F 39% 30.66 in 10.0 mi North 10.4 mph - N/A   Clear
4:35 PM 17.6 °F 4.3 °F -0.4 °F 45% 30.67 in 10.0 mi NNW 12.7 mph 16.1 mph N/A   Clear
4:55 PM 17.6 °F 4.3 °F -0.4 °F 45% 30.67 in 10.0 mi NNW 12.7 mph - N/A   Clear
5:15 PM 15.8 °F 4.2 °F -0.4 °F 49% 30.68 in 10.0 mi North 9.2 mph - N/A   Clear
5:35 PM 14.0 °F 1.2 °F -0.4 °F 53% 30.69 in 10.0 mi North 10.4 mph - N/A   Clear
5:55 PM 14.0 °F 3.9 °F -0.4 °F 53% 30.69 in 10.0 mi North 6.9 mph - N/A   Clear
6:15 PM 14.0 °F 1.2 °F -0.4 °F 53% 30.70 in 10.0 mi North 10.4 mph - N/A   Clear
6:35 PM 12.2 °F -0.2 °F -0.4 °F 57% 30.71 in 10.0 mi North 9.2 mph - N/A   Clear
6:55 PM 12.2 °F 0.7 °F -0.4 °F 57% 30.72 in 10.0 mi North 8.1 mph - N/A   Clear
7:15 PM 12.2 °F 1.7 °F -0.4 °F 57% 30.73 in 10.0 mi North 6.9 mph - N/A   Clear
7:35 PM 12.2 °F 1.7 °F -0.4 °F 57% 30.73 in 10.0 mi North 6.9 mph - N/A   Clear
7:55 PM 10.4 °F 0.8 °F -0.4 °F 62% 30.74 in 10.0 mi North 5.8 mph - N/A   Clear
8:15 PM 10.4 °F 0.8 °F -0.4 °F 62% 30.74 in 10.0 mi North 5.8 mph - N/A   Clear
8:55 PM 10.4 °F 0.8 °F 1.4 °F 67% 30.74 in 10.0 mi NNW 5.8 mph - N/A   Clear
9:15 PM 10.4 °F 0.8 °F 1.4 °F 67% 30.74 in 10.0 mi North 5.8 mph - N/A   Clear
9:35 PM 10.4 °F 4.0 °F 1.4 °F 67% 30.74 in 10.0 mi North 3.5 mph - N/A   Clear
10:15 PM 10.4 °F 4.0 °F 1.4 °F 67% 30.75 in 10.0 mi NNW 3.5 mph - N/A   Clear
10:35 PM 10.4 °F 4.0 °F 1.4 °F 67% 30.75 in 10.0 mi NNW 3.5 mph - N/A   Clear
10:55 PM 10.4 °F - 1.4 °F 67% 30.75 in 10.0 mi Calm Calm - N/A   Clear
11:15 PM 8.6 °F - 3.2 °F 79% 30.75 in 10.0 mi Calm Calm - N/A   Clear
11:35 PM 8.6 °F - 3.2 °F 79% 30.75 in 10.0 mi Calm Calm - N/A   Clear
11:55 PM 8.6 °F - 3.2 °F 79% 30.75 in 10.0 mi Calm Calm - N/A   Clear